Home > Time Zones > World Clock > Weather > Iran > Tehran > Past weeks

Flag for Iran Weather past 2 weeks in Tehran, Iran

Now
81 °F

Clear.


Feels Like: 79 °F
Forecast: 69 / 101 °F
Wind: 7 mph from North

Location: Tehran-Mehrabad

Current Time: Aug 2, 2014 at 5:49:08 AM

Latest Report: Aug 2, 2014 at 5:30 AM


Visibility: 10 mi

Pressure: 29.89 "Hg

Humidity: 24%

Dew point: 41 °F

Location of TehranLocation

Historic Weather in Tehran — Graph

°F

Tehran temperature yesterday

Maximum temperature yesterday: 97 °F (at 4:30 PM)
Minimum temperature yesterday: 79 °F (at 6:30 AM)
Average temperature yesterday: 88 °F

Past Weeks' High & Low Weather Summary

 TemperatureHumidityPressure
High108 °F (Jul 27, 3:30 PM)44% (Jul 21, 6:00 AM)32.90 "Hg (Jul 21, 6:00 AM)
Low68 °F (Jul 30, 6:30 AM)5% (Jul 27, 2:00 PM)29.62 "Hg (Jul 20, 6:30 PM)
Average90 °F19%29.79 "Hg
* Reported Jul 18 4:30 AM — Aug 2 4:30 AM, Tehran, Weather by CustomWeather, © 2014

Note: Actual official high and low records may vary slightly from our data, if they occured in-between our weather recording intervals... More about our weather records

Advertising

Tehran weather history for previous 24 hours

 ConditionsComfort  
Time TempWeatherWind HumidityBarometerVisibility
4:30 AM
Aug 2
81 °FClear.5 mph26%29.89 "Hg10 mi
4:00 AM81 °FPassing clouds.No wind26%29.89 "HgN/A
3:30 AM82 °FPassing clouds.No wind26%29.86 "HgN/A
3:00 AM84 °FPassing clouds.No wind23%29.89 "HgN/A
2:30 AM84 °FPassing clouds.No wind23%29.86 "HgN/A
2:00 AM86 °FPassing clouds.No wind20%29.86 "HgN/A
1:30 AM88 °FPassing clouds.No wind19%29.86 "HgN/A
1:00 AM86 °FPassing clouds.No wind18%29.86 "HgN/A
12:30 AM90 °FPassing clouds.7 mph16%29.86 "HgN/A
12:00 AM90 °FPassing clouds.7 mph17%29.86 "HgN/A
11:30 PM
Aug 1
88 °FPassing clouds.7 mph19%29.86 "HgN/A
11:00 PM88 °FPassing clouds.5 mph21%29.86 "HgN/A
10:30 PM88 °FPassing clouds.5 mph21%29.86 "HgN/A
10:00 PM90 °FPassing clouds.5 mph18%29.86 "HgN/A
9:30 PM91 °FPassing clouds.5 mph14%29.86 "HgN/A
9:00 PM93 °FPassing clouds.5 mph12%29.83 "HgN/A
8:30 PM93 °FPassing clouds.5 mph12%29.83 "HgN/A
8:00 PM95 °FPassing clouds.7 mph12%29.80 "HgN/A
7:30 PM95 °FPassing clouds.9 mph12%29.80 "HgN/A
7:00 PM95 °FPassing clouds.9 mph11%29.80 "HgN/A
6:30 PM97 °FPassing clouds.12 mph12%29.80 "HgN/A
6:00 PM97 °FPassing clouds.12 mph12%29.80 "HgN/A
5:30 PM97 °FPassing clouds.12 mph12%29.83 "HgN/A
5:00 PM97 °FPassing clouds.14 mph11%29.83 "HgN/A
4:30 PM97 °FPassing clouds.12 mph11%29.83 "HgN/A
4:00 PM95 °FPassing clouds.7 mph11%29.83 "HgN/A
3:30 PM95 °FPassing clouds.7 mph11%29.86 "HgN/A
3:00 PM95 °FPassing clouds.12 mph11%29.86 "HgN/A
2:30 PM93 °FPassing clouds.12 mph12%29.86 "HgN/A
2:00 PM93 °FPassing clouds.9 mph12%29.89 "HgN/A
1:30 PM93 °FPassing clouds.9 mph12%29.89 "HgN/A
1:00 PM93 °FScattered clouds.9 mph12%29.89 "HgN/A
12:30 PM91 °FScattered clouds.12 mph13%29.92 "HgN/A
12:00 PM91 °FScattered clouds.9 mph11%29.92 "HgN/A
11:30 AM90 °FScattered clouds.7 mph15%29.92 "HgN/A
11:00 AM88 °FSunny.9 mph17%29.95 "Hg10 mi
10:30 AM88 °FSunny.5 mph13%29.92 "Hg10 mi
10:00 AM86 °FSunny.7 mph15%29.92 "Hg10 mi
9:30 AM84 °FSunny.7 mph15%29.92 "Hg10 mi
9:00 AM84 °FSunny.7 mph15%29.92 "Hg10 mi
8:30 AM82 °FSunny.5 mph16%29.92 "Hg10 mi
8:00 AM82 °FSunny.5 mph17%29.92 "Hg10 mi
7:30 AM81 °FClear.7 mph23%29.92 "Hg10 mi
7:00 AM79 °FClear.7 mph24%29.89 "Hg10 mi
6:30 AM79 °FClear.7 mph24%29.89 "Hg10 mi
6:00 AM81 °FClear.5 mph23%29.89 "Hg10 mi
5:30 AM81 °FClear.5 mph23%29.89 "Hg10 mi
Weather by CustomWeather, © 2014

See weather overviewHow to use our weather pages